Weather History for Faleolo, Samoa

Change the Weather History Date:

Monday, February 18, 2013

  Actual Average Record
Temperature  
Mean Temperature 82 °F -  
Max Temperature 87 °F 85 °F 89 °F (2007)
Min Temperature 77 °F 74 °F 69 °F (2007)
Cooling Degree Days 17    
Growing Degree Days 32 (Base 50)    
Moisture  
Dew Point 76 °F    
Average Humidity 82    
Maximum Humidity 94    
Minimum Humidity 61    
Precipitation  
Precipitation 0.00 in - - ()
Sea Level Pressure  
Sea Level Pressure 29.81 in    
Wind  
Wind Speed 4 mph ()    
Max Wind Speed 14 mph    
Max Gust Speed -    
Visibility 8.1 miles    
Events      
Averages and records for this station are not official NWS values.
T = Trace of Precipitation, MM = Missing Value Source: Averaged Metar Reports

Daily Weather History Graph

Daily Weather History Graph

Search for Another Location

Airport:

Trip Planner

Search our weather history database for the weather conditions in past years. The results will help you decide how hot, cold, wet, or windy it might be!

Date:

Astronomy

Feb. 19, 2013 Rise Set
Actual Time 7:27 AM WSDT 7:56 PM WSDT
Civil Twilight 7:05 AM WSDT 8:18 PM WSDT
Nautical Twilight 6:39 AM WSDT 8:43 PM WSDT
Astronomical Twilight 6:14 AM WSDT 9:09 PM WSDT
Moon 1:51 PM WSDT (2/18) 12:47 AM WSDT (2/18)
Length of Visible Light 13h 13m
Length of Day
12h 29m
Waxing Crescent, 51% of the Moon is Illuminated
Feb 18
Waxing Crescent
Feb 26
Full
Mar 5
Last Quarter
Mar 12
New
Mar 20
First Quarter

Hourly Weather History & Observations

Time (WSDT) Temp. Heat Index Dew Point Humidity Pressure Visibility Wind Dir Wind Speed Gust Speed Precip Events Conditions
12:00 AM 78.8 °F - 75.2 °F 89% 29.83 in 21.8 mi SSE 2.3 mph - N/A   Scattered Clouds
1:00 AM 78.8 °F - 75.2 °F 89% 29.83 in 21.8 mi SSE 3.5 mph - N/A   Scattered Clouds
2:00 AM 79 °F - 75 °F 84% 29.81 in 12 mi Calm Calm - -   Scattered Clouds
2:00 AM 78.8 °F - 75.2 °F 89% 29.80 in 6.2 mi Calm Calm - N/A   Scattered Clouds
3:00 AM 78.8 °F - 75.2 °F 89% 29.80 in 21.8 mi SSE 2.3 mph - N/A   Mostly Cloudy
4:00 AM 78.8 °F - 75.2 °F 89% 29.77 in 6.2 mi Calm Calm - N/A   Mostly Cloudy
5:00 AM 78 °F - 77 °F 94% 29.79 in 12 mi South 2.3 mph - -   Scattered Clouds
5:00 AM 78.8 °F - 77.0 °F 94% 29.77 in 6.2 mi South 2.3 mph - N/A   Mostly Cloudy
7:00 AM 77.0 °F - 75.2 °F 94% 29.77 in 6.2 mi SSE 2.3 mph - N/A   Mostly Cloudy
8:00 AM 79 °F - 74 °F 82% 29.82 in 12 mi SSE 3.5 mph - -   Scattered Clouds
8:00 AM 78.8 °F - 75.2 °F 89% 29.80 in 6.2 mi SSE 3.5 mph - N/A   Mostly Cloudy
9:00 AM 78.8 °F - 75.2 °F 89% 29.83 in 21.8 mi SSE 3.5 mph - N/A   Mostly Cloudy
10:00 AM 84.2 °F 96.1 °F 78.8 °F 84% 29.83 in 21.8 mi East 6.9 mph - N/A   Mostly Cloudy
11:00 AM 85 °F - 75 °F 66% 29.86 in 12 mi East 8.1 mph - -   Haze
11:00 AM 86.0 °F 95.1 °F 75.2 °F 70% 29.83 in 6.2 mi East 8.1 mph - N/A   Mostly Cloudy
12:00 PM 86.0 °F 95.1 °F 75.2 °F 70% 29.83 in 6.2 mi NNE 9.2 mph - N/A   Mostly Cloudy
1:00 PM 87.8 °F 99.7 °F 77.0 °F 70% 29.83 in 6.2 mi ENE 8.1 mph - N/A   Mostly Cloudy
2:00 PM 87 °F - 77 °F 66% 29.83 in 12 mi ENE 11.5 mph - -   Haze
2:00 PM 87.8 °F 99.7 °F 77.0 °F 70% 29.83 in 6.2 mi ENE 11.5 mph - N/A   Mostly Cloudy
3:00 PM 87.8 °F 99.7 °F 77.0 °F 70% 29.80 in 6.2 mi NE 13.8 mph - N/A   Mostly Cloudy
4:00 PM 87.8 °F 99.7 °F 77.0 °F 70% 29.77 in 6.2 mi ENE 12.7 mph - N/A   Mostly Cloudy
5:00 PM 87 °F - 75 °F 61% 29.79 in 12 mi ENE 12.7 mph - -   Mostly Cloudy
5:00 PM 87.8 °F 97.6 °F 75.2 °F 66% 29.77 in 6.2 mi ENE 12.7 mph - N/A   Mostly Cloudy
6:00 PM 84.2 °F 94.1 °F 77.0 °F 79% 29.77 in 6.2 mi East 6.9 mph - N/A   Overcast
7:00 PM 82.4 °F 90.9 °F 77.0 °F 84% 29.80 in 6.2 mi SE 3.5 mph - N/A   Mostly Cloudy
8:00 PM 81 °F - 78 °F 88% 29.83 in 12 mi Calm Calm - -   Overcast
8:00 PM 80.6 °F 88.1 °F 78.8 °F 94% 29.83 in 6.2 mi Calm Calm - N/A   Overcast
9:00 PM 80.6 °F 87.1 °F 77.0 °F 89% 29.83 in 6.2 mi SSW 3.5 mph - N/A   Mostly Cloudy
10:00 PM 78.8 °F - 77.0 °F 94% 29.83 in 21.8 mi Calm Calm - N/A   Mostly Cloudy
11:00 PM 77 °F - 75 °F 93% 29.86 in 12 mi South 2.3 mph - -   Partly Cloudy
11:00 PM 77.0 °F - 75.2 °F 94% 29.83 in 6.2 mi South 2.3 mph - N/A   Mostly Cloudy